LVLRG CYYT-CYQX

Flight info

Callsign LVLRG
Flight time 1h 1m
Altitude 10000
Route CYYT8 YYT339096
Aircraft B350/L-SDF/C

Departure

Time 2026-04-25 18:35
Airport St. John's International Airport (CYYT)

Arrival

Time 2026-04-25 19:36
Airport Gander International Airport (CYQX)
Time Latitude Longitude Altitude Speed Heading
2026-04-25 18:09 47.62007 -52.73640 445 ft 0 kts 283°
2026-04-25 18:27 47.62017 -52.73634 445 ft 0 kts
2026-04-25 18:27 47.62042 -52.73648 442 ft 6 kts 328°
2026-04-25 18:27 47.62065 -52.73694 436 ft 6 kts 315°
2026-04-25 18:27 47.62105 -52.73712 439 ft 6 kts 359°
2026-04-25 18:28 47.62172 -52.73719 438 ft 14 kts 353°
2026-04-25 18:28 47.62260 -52.73731 446 ft 10 kts 354°
2026-04-25 18:28 47.62312 -52.73744 442 ft 7 kts 338°
2026-04-25 18:29 47.62376 -52.73837 441 ft 6 kts 314°
2026-04-25 18:29 47.62405 -52.73879 443 ft 7 kts 317°
2026-04-25 18:30 47.62504 -52.74208 449 ft 11 kts 265°
2026-04-25 18:30 47.62499 -52.74323 450 ft 12 kts 268°
2026-04-25 18:30 47.62494 -52.74451 450 ft 14 kts 262°
2026-04-25 18:30 47.62486 -52.74629 450 ft 20 kts 270°
2026-04-25 18:31 47.62481 -52.74855 449 ft 22 kts 270°
2026-04-25 18:31 47.62459 -52.75075 447 ft 20 kts 266°
2026-04-25 18:31 47.62464 -52.75335 448 ft 30 kts 270°
2026-04-25 18:31 47.62437 -52.75661 452 ft 33 kts 258°
2026-04-25 18:32 47.62418 -52.76012 456 ft 34 kts 269°
2026-04-25 18:32 47.62402 -52.76372 459 ft 36 kts 267°
2026-04-25 18:32 47.62381 -52.76746 460 ft 38 kts 267°
2026-04-25 18:32 47.62360 -52.77093 461 ft 13 kts 253°
2026-04-25 18:33 47.62362 -52.77138 461 ft 9 kts 89°
2026-04-25 18:33 47.62372 -52.77049 460 ft 9 kts 72°
2026-04-25 18:33 47.62376 -52.76954 459 ft 0 kts 91°
2026-04-25 18:33 47.62376 -52.76950 459 ft 1 kts 89°
2026-04-25 18:34 47.62376 -52.76942 459 ft 0 kts 82°
2026-04-25 18:34 47.62378 -52.76925 459 ft 18 kts 82°
2026-04-25 18:34 47.62410 -52.76292 459 ft 99 kts 86°
2026-04-25 18:34 47.62433 -52.75046 619 ft 131 kts 84°
2026-04-25 18:35 47.62411 -52.73684 1184 ft 135 kts 82°
2026-04-25 18:35 47.62339 -52.72331 1859 ft 135 kts 85°
2026-04-25 18:35 47.62249 -52.70809 2146 ft 156 kts 84°
2026-04-25 18:35 47.62192 -52.69147 2589 ft 164 kts 79°
2026-04-25 18:36 47.62579 -52.67654 3008 ft 156 kts 38°
2026-04-25 18:36 47.63573 -52.67177 3382 ft 156 kts 352°
2026-04-25 18:36 47.64426 -52.68180 3961 ft 173 kts 304°
2026-04-25 18:36 47.64535 -52.70055 4506 ft 191 kts 273°
2026-04-25 18:37 47.64385 -52.71986 5120 ft 189 kts 274°
2026-04-25 18:37 47.64252 -52.73975 5548 ft 198 kts 274°
2026-04-25 18:37 47.64102 -52.76025 6093 ft 201 kts 272°
2026-04-25 18:37 47.63922 -52.78079 6682 ft 201 kts 271°
2026-04-25 18:38 47.63722 -52.80139 7211 ft 204 kts 270°
2026-04-25 18:38 47.63500 -52.82233 7717 ft 207 kts 269°
2026-04-25 18:38 47.63236 -52.84347 8272 ft 209 kts 267°
2026-04-25 18:38 47.62929 -52.86450 8842 ft 209 kts 268°
2026-04-25 18:39 47.62646 -52.88594 9332 ft 214 kts 268°
2026-04-25 18:39 47.62377 -52.90769 9812 ft 215 kts 269°
2026-04-25 18:39 47.62117 -52.93006 10057 ft 228 kts 268°
2026-04-25 18:39 47.61835 -52.95412 10060 ft 246 kts 268°
2026-04-25 18:40 47.61544 -52.97977 10066 ft 256 kts 271°
2026-04-25 18:40 47.61759 -53.00530 10092 ft 247 kts 301°
2026-04-25 18:40 47.62792 -53.02458 10070 ft 238 kts 330°
2026-04-25 18:40 47.64186 -53.03774 10095 ft 239 kts 334°
2026-04-25 18:41 47.65628 -53.05069 10047 ft 245 kts 335°
2026-04-25 18:41 47.67094 -53.06371 10076 ft 246 kts 335°
2026-04-25 18:41 47.68521 -53.07767 10025 ft 253 kts 328°
2026-04-25 18:41 47.69857 -53.09508 10002 ft 257 kts 325°
2026-04-25 18:42 47.71226 -53.11182 10016 ft 255 kts 328°
2026-04-25 18:42 47.71692 -53.11736 10016 ft 255 kts 328°
2026-04-25 18:42 47.74026 -53.14424 10000 ft 255 kts 329°
2026-04-25 18:42 47.75434 -53.16018 10019 ft 254 kts 329°
2026-04-25 18:43 47.76857 -53.17575 10024 ft 252 kts 332°
2026-04-25 18:43 47.78301 -53.19061 10006 ft 254 kts 331°
2026-04-25 18:43 47.79740 -53.20588 10024 ft 253 kts 330°
2026-04-25 18:43 47.81158 -53.22146 10025 ft 253 kts 330°
2026-04-25 18:44 47.82557 -53.23741 10034 ft 254 kts 329°
2026-04-25 18:44 47.83938 -53.25380 10049 ft 254 kts 328°
2026-04-25 18:44 47.85301 -53.27044 10062 ft 254 kts 328°
2026-04-25 18:44 47.86680 -53.28684 10068 ft 253 kts 329°
2026-04-25 18:45 47.88071 -53.30291 10091 ft 252 kts 330°
2026-04-25 18:45 47.89476 -53.31853 10118 ft 251 kts 331°
2026-04-25 18:45 47.90887 -53.33398 10125 ft 252 kts 330°
2026-04-25 18:45 47.92278 -53.34995 10123 ft 253 kts 329°
2026-04-25 18:46 47.93644 -53.36656 10116 ft 254 kts 326°
2026-04-25 18:46 47.94962 -53.38467 10116 ft 256 kts 324°
2026-04-25 18:46 47.96299 -53.40100 10068 ft 253 kts 331°
2026-04-25 18:46 47.97811 -53.41728 10092 ft 252 kts 332°
2026-04-25 18:47 47.99152 -53.43144 10106 ft 252 kts 332°
2026-04-25 18:47 48.00598 -53.44618 10122 ft 250 kts 334°
2026-04-25 18:47 48.02066 -53.45996 10130 ft 248 kts 336°
2026-04-25 18:47 48.03558 -53.47292 10114 ft 248 kts 336°
2026-04-25 18:48 48.05035 -53.48645 10100 ft 250 kts 334°
2026-04-25 18:48 48.06489 -53.50063 10107 ft 250 kts 334°
2026-04-25 18:48 48.07931 -53.51511 10117 ft 250 kts 333°
2026-04-25 18:48 48.09357 -53.52999 10100 ft 251 kts 332°
2026-04-25 18:49 48.10782 -53.54558 10093 ft 252 kts 330°
2026-04-25 18:49 48.12175 -53.56104 10119 ft 250 kts 332°
2026-04-25 18:49 48.13616 -53.57547 10129 ft 249 kts 335°
2026-04-25 18:49 48.15087 -53.58851 10124 ft 248 kts 337°
2026-04-25 18:50 48.16540 -53.60286 10114 ft 252 kts 330°
2026-04-25 18:50 48.17937 -53.61887 10120 ft 252 kts 330°
2026-04-25 18:50 48.19330 -53.63475 10143 ft 251 kts 330°
2026-04-25 18:50 48.20727 -53.65043 10129 ft 251 kts 332°
2026-04-25 18:51 48.22151 -53.66538 10112 ft 250 kts 333°
2026-04-25 18:51 48.22642 -53.67037 10108 ft 250 kts 333°
2026-04-25 18:51 48.25013 -53.69531 10109 ft 251 kts 330°
2026-04-25 18:51 48.26393 -53.71153 10120 ft 252 kts 329°
2026-04-25 18:52 48.27770 -53.72783 10135 ft 252 kts 330°
2026-04-25 18:52 48.29141 -53.74419 10143 ft 252 kts 329°
2026-04-25 18:52 48.30513 -53.76054 10129 ft 252 kts 330°
2026-04-25 18:52 48.31896 -53.77674 10132 ft 252 kts 330°
2026-04-25 18:53 48.33279 -53.79281 10154 ft 251 kts 330°
2026-04-25 18:53 48.34672 -53.80863 10152 ft 251 kts 331°
2026-04-25 18:53 48.36083 -53.82403 10140 ft 251 kts 332°
2026-04-25 18:53 48.37515 -53.83891 10131 ft 250 kts 334°
2026-04-25 18:54 48.40434 -53.86699 10160 ft 248 kts 336°
2026-04-25 18:54 48.41918 -53.88030 10164 ft 248 kts 337°
2026-04-25 18:54 48.43406 -53.89336 10161 ft 248 kts 337°
2026-04-25 18:55 48.44891 -53.90647 10172 ft 247 kts 337°
2026-04-25 18:55 48.46381 -53.91949 10174 ft 247 kts 337°
2026-04-25 18:55 48.47878 -53.93232 10166 ft 248 kts 338°
2026-04-25 18:55 48.49366 -53.94475 10165 ft 248 kts 337°
2026-04-25 18:56 48.50819 -53.95905 10161 ft 251 kts 332°
2026-04-25 18:56 48.52183 -53.97590 10158 ft 255 kts 326°
2026-04-25 18:56 48.53390 -53.99607 10130 ft 265 kts 314°
2026-04-25 18:56 48.54328 -54.02048 10101 ft 273 kts 303°
2026-04-25 18:57 48.54797 -54.03867 10094 ft 277 kts 297°
2026-04-25 18:57 48.55592 -54.07526 10152 ft 276 kts 297°
2026-04-25 18:57 48.56161 -54.10294 10127 ft 278 kts 295°
2026-04-25 18:57 48.56347 -54.11239 10116 ft 278 kts 295°
2026-04-25 18:58 48.57256 -54.15896 10091 ft 276 kts 299°
2026-04-25 18:58 48.58866 -54.19888 9986 ft 263 kts 321°
2026-04-25 18:58 48.60118 -54.21859 10003 ft 254 kts 322°
2026-04-25 18:59 48.62541 -54.25687 9507 ft 257 kts 322°
2026-04-25 18:59 48.65177 -54.29346 8767 ft 256 kts 330°
2026-04-25 19:00 48.68144 -54.32166 8236 ft 246 kts 339°
2026-04-25 19:00 48.69647 -54.33347 7941 ft 243 kts 338°
2026-04-25 19:01 48.71611 -54.37687 7097 ft 284 kts 281°
2026-04-25 19:01 48.71327 -54.40690 6812 ft 293 kts 256°
2026-04-25 19:01 48.70316 -54.43376 6512 ft 297 kts 238°
2026-04-25 19:01 48.69094 -54.45871 6264 ft 293 kts 238°
2026-04-25 19:02 48.67218 -54.51149 5508 ft 282 kts 267°
2026-04-25 19:02 48.67039 -54.54017 5300 ft 269 kts 276°
2026-04-25 19:02 48.67032 -54.56819 4922 ft 264 kts 283°
2026-04-25 19:03 48.68276 -54.60605 4156 ft 235 kts 331°
2026-04-25 19:03 48.70220 -54.61549 3770 ft 218 kts 356°
2026-04-25 19:03 48.71708 -54.61759 3538 ft 207 kts
2026-04-25 19:04 48.74375 -54.61309 2808 ft 183 kts
2026-04-25 19:04 48.75636 -54.61226 2775 ft 181 kts
2026-04-25 19:05 48.77908 -54.60445 2867 ft 154 kts 15°
2026-04-25 19:05 48.79792 -54.59997 2885 ft 121 kts
2026-04-25 19:05 48.80611 -54.59965 2856 ft 116 kts
2026-04-25 19:06 48.81421 -54.59835 2667 ft 117 kts 11°
2026-04-25 19:06 48.82998 -54.59384 2227 ft 117 kts 10°
2026-04-25 19:06 48.83770 -54.59106 2015 ft 110 kts 15°
2026-04-25 19:07 48.85255 -54.58554 1709 ft 107 kts
2026-04-25 19:07 48.85993 -54.58398 1527 ft 110 kts
2026-04-25 19:08 48.87514 -54.58078 1300 ft 110 kts
2026-04-25 19:08 48.88252 -54.57786 1177 ft 111 kts
2026-04-25 19:09 48.90458 -54.57255 798 ft 111 kts
2026-04-25 19:09 48.90945 -54.57098 697 ft 105 kts
2026-04-25 19:09 48.92577 -54.56649 844 ft 110 kts
2026-04-25 19:10 48.93442 -54.56434 1078 ft 141 kts
2026-04-25 19:10 48.94454 -54.56185 1480 ft 154 kts
2026-04-25 19:10 48.95521 -54.55941 2050 ft 151 kts
2026-04-25 19:10 48.96552 -54.55762 2625 ft 150 kts
2026-04-25 19:11 48.97652 -54.55645 2788 ft 169 kts
2026-04-25 19:11 48.98890 -54.55993 2820 ft 191 kts 347°
2026-04-25 19:11 49.00169 -54.56621 3077 ft 192 kts 347°
2026-04-25 19:11 49.01433 -54.57151 3468 ft 187 kts 354°
2026-04-25 19:12 49.02718 -54.57460 3841 ft 185 kts 358°
2026-04-25 19:12 49.03976 -54.57656 4294 ft 179 kts 359°
2026-04-25 19:12 49.05192 -54.57841 4718 ft 177 kts 358°
2026-04-25 19:12 49.06451 -54.58048 4818 ft 190 kts 357°
2026-04-25 19:13 49.07793 -54.58340 4996 ft 196 kts 356°
2026-04-25 19:13 49.09157 -54.58612 5051 ft 205 kts 356°
2026-04-25 19:13 49.10581 -54.58649 5041 ft 208 kts 18°
2026-04-25 19:13 49.11729 -54.57253 5057 ft 221 kts 54°
2026-04-25 19:14 49.12018 -54.54907 5057 ft 246 kts 91°
2026-04-25 19:14 49.11576 -54.53216 5081 ft 264 kts 116°
2026-04-25 19:14 49.09497 -54.51070 5067 ft 293 kts 163°
2026-04-25 19:14 49.07486 -54.50596 5129 ft 292 kts 168°
2026-04-25 19:15 49.05461 -54.50159 5070 ft 296 kts 168°
2026-04-25 19:15 49.03401 -54.49751 4976 ft 300 kts 170°
2026-04-25 19:15 49.01327 -54.49368 4971 ft 298 kts 168°
2026-04-25 19:15 48.99279 -54.48989 5008 ft 297 kts 173°
2026-04-25 19:16 48.97255 -54.49572 5006 ft 300 kts 209°
2026-04-25 19:16 48.95723 -54.51611 5034 ft 289 kts 243°
2026-04-25 19:16 48.95138 -54.54390 5017 ft 270 kts 279°
2026-04-25 19:16 48.95691 -54.56917 5019 ft 242 kts 319°
2026-04-25 19:17 48.97073 -54.58060 5012 ft 223 kts 357°
2026-04-25 19:17 48.98569 -54.57784 5015 ft 216 kts 17°
2026-04-25 19:17 48.99998 -54.57146 4999 ft 213 kts 14°
2026-04-25 19:17 49.01461 -54.56827 4948 ft 213 kts
2026-04-25 19:18 49.02924 -54.57098 4968 ft 211 kts 357°
2026-04-25 19:18 49.04381 -54.57348 4970 ft 208 kts 358°
2026-04-25 19:18 49.05799 -54.57722 5018 ft 208 kts 350°
2026-04-25 19:18 49.07191 -54.58342 5014 ft 209 kts 349°
2026-04-25 19:19 49.08588 -54.58940 5032 ft 208 kts 350°
2026-04-25 19:19 49.09989 -54.59448 5024 ft 205 kts 358°
2026-04-25 19:19 49.11310 -54.58886 5018 ft 201 kts 35°
2026-04-25 19:19 49.11887 -54.57753 4867 ft 212 kts 61°
2026-04-25 19:20 49.11740 -54.54614 4521 ft 248 kts 110°
2026-04-25 19:20 49.10470 -54.52709 4310 ft 270 kts 147°
2026-04-25 19:20 49.08621 -54.51989 4085 ft 277 kts 167°
2026-04-25 19:20 49.06719 -54.51573 3851 ft 277 kts 168°
2026-04-25 19:21 49.04830 -54.51215 3633 ft 277 kts 171°
2026-04-25 19:21 49.00953 -54.51415 3153 ft 278 kts 185°
2026-04-25 19:21 48.99036 -54.51744 2953 ft 277 kts 185°
2026-04-25 19:22 48.97122 -54.52069 2719 ft 276 kts 185°
2026-04-25 19:22 48.95224 -54.52428 2596 ft 271 kts 186°
2026-04-25 19:22 48.91552 -54.53156 2572 ft 259 kts 187°
2026-04-25 19:23 48.89801 -54.53495 2628 ft 254 kts 189°
2026-04-25 19:23 48.87051 -54.56410 2568 ft 244 kts 235°
2026-04-25 19:23 48.85866 -54.58271 2614 ft 246 kts 225°
2026-04-25 19:24 48.84334 -54.59360 2581 ft 248 kts 187°
2026-04-25 19:24 48.82615 -54.59547 2583 ft 247 kts 185°
2026-04-25 19:24 48.79224 -54.60282 2625 ft 246 kts 187°
2026-04-25 19:25 48.75832 -54.60631 2597 ft 243 kts 160°
2026-04-25 19:25 48.74363 -54.59495 2559 ft 237 kts 143°
2026-04-25 19:25 48.72911 -54.58307 2595 ft 237 kts 147°
2026-04-25 19:26 48.71461 -54.57142 2615 ft 234 kts 146°
2026-04-25 19:26 48.70029 -54.55971 2600 ft 234 kts 145°
2026-04-25 19:26 48.68590 -54.54810 2618 ft 234 kts 149°
2026-04-25 19:26 48.66985 -54.54423 2631 ft 241 kts 192°
2026-04-25 19:27 48.65580 -54.55652 2672 ft 231 kts 236°
2026-04-25 19:27 48.65090 -54.57016 2701 ft 217 kts 263°
2026-04-25 19:27 48.65372 -54.59716 2678 ft 186 kts 317°
2026-04-25 19:27 48.66274 -54.61065 2643 ft 183 kts 324°
2026-04-25 19:28 48.67226 -54.62345 2603 ft 183 kts 327°
2026-04-25 19:28 48.68307 -54.63206 2557 ft 174 kts 359°
2026-04-25 19:28 48.69473 -54.62794 2581 ft 173 kts 18°
2026-04-25 19:28 48.70610 -54.62356 2593 ft 168 kts
2026-04-25 19:29 48.71751 -54.62201 2602 ft 162 kts
2026-04-25 19:29 48.72860 -54.62031 2576 ft 156 kts
2026-04-25 19:29 48.73886 -54.61804 2563 ft 141 kts 11°
2026-04-25 19:29 48.74764 -54.61540 2573 ft 119 kts 12°
2026-04-25 19:30 48.75521 -54.61301 2587 ft 108 kts 11°
2026-04-25 19:30 48.76231 -54.61119 2558 ft 100 kts
2026-04-25 19:30 48.76894 -54.60995 2623 ft 94 kts
2026-04-25 19:30 48.77549 -54.60844 2617 ft 96 kts
2026-04-25 19:31 48.78207 -54.60681 2640 ft 96 kts 13°
2026-04-25 19:31 48.78855 -54.60443 2667 ft 97 kts 12°
2026-04-25 19:31 48.79528 -54.60252 2714 ft 101 kts 10°
2026-04-25 19:31 48.80248 -54.60099 2707 ft 106 kts 10°
2026-04-25 19:32 48.80953 -54.59867 2685 ft 102 kts 12°
2026-04-25 19:32 48.81657 -54.59635 2488 ft 101 kts 11°
2026-04-25 19:32 48.82332 -54.59437 2319 ft 97 kts
2026-04-25 19:32 48.82554 -54.59381 2266 ft 95 kts
2026-04-25 19:33 48.83608 -54.59155 2000 ft 90 kts
2026-04-25 19:33 48.84224 -54.58943 1946 ft 89 kts 12°
2026-04-25 19:33 48.84826 -54.58698 1843 ft 91 kts
2026-04-25 19:33 48.85460 -54.58579 1718 ft 92 kts
2026-04-25 19:34 48.86103 -54.58451 1595 ft 94 kts
2026-04-25 19:34 48.86749 -54.58238 1489 ft 95 kts
2026-04-25 19:34 48.87406 -54.58025 1301 ft 99 kts
2026-04-25 19:34 48.88072 -54.57838 1157 ft 97 kts
2026-04-25 19:35 48.88750 -54.57652 1024 ft 98 kts
2026-04-25 19:35 48.89420 -54.57463 921 ft 97 kts
2026-04-25 19:35 48.90089 -54.57300 780 ft 97 kts
2026-04-25 19:35 48.90742 -54.57124 693 ft 94 kts
2026-04-25 19:36 48.91375 -54.56957 626 ft 92 kts
2026-04-25 19:36 48.92028 -54.56804 478 ft 95 kts
2026-04-25 19:36 48.92642 -54.56619 441 ft 84 kts
2026-04-25 19:36 48.93112 -54.56504 437 ft 45 kts
2026-04-25 19:37 48.93251 -54.56540 444 ft 15 kts 274°
2026-04-25 19:37 48.93269 -54.56639 438 ft 0 kts 281°